Flag for Czech Republic Weather past 2 weeks in Prague, Czech Republic

Now
30 °F

Passing clouds.


Feels Like: 30 °F
Forecast: 35 / 39 °F
Wind: No wind

Location: Prague Ruzyne Airport

Current Time: Jan 26, 2015 at 4:14:07 AM

Latest Report: Jan 26, 2015 at 3:30 AM


Visibility: N/A

Pressure: 30.24 "Hg

Humidity: 93%

Dew point: 28 °F

Location of PragueLocation

Historic Weather in Prague — Graph

°F

Prague temperature yesterday

Maximum temperature yesterday: 37 °F (at 1:00 PM)
Minimum temperature yesterday: 30 °F (at 12:00 AM)
Average temperature yesterday: 32 °F

Past Weeks' High & Low Weather Summary

 TemperatureHumidityPressure
High52 °F (Jan 13, 12:30 PM)100% (Jan 17, 3:00 AM)30.27 "Hg (Jan 17, 3:00 AM)
Low28 °F (Jan 15, 6:00 AM)35% (Jan 13, 3:00 PM)29.68 "Hg (Jan 17, 1:00 AM)
Average35 °F83%29.96 "Hg
* Reported Jan 11 3:00 AM — Jan 26 3:00 AM, Prague, Weather by CustomWeather, © 2014

Note: Actual official high and low records may vary slightly from our data, if they occured in-between our weather recording intervals... More about our weather records

Advertising

Prague weather history for previous 24 hours

 ConditionsComfort  
Time TempWeatherWind HumidityBarometerVisibility
3:00 AM
Jan 26
30 °FPassing clouds.2 mph93%30.24 "HgN/A
2:30 AM30 °FPassing clouds.5 mph93%30.27 "HgN/A
2:00 AM30 °FPassing clouds.3 mph93%30.27 "HgN/A
1:30 AM30 °FPassing clouds.2 mph93%30.27 "HgN/A
1:00 AM30 °FPassing clouds.No wind93%30.27 "HgN/A
12:30 AM30 °FPassing clouds.No wind93%30.27 "HgN/A
12:00 AM30 °FPassing clouds.2 mph93%30.27 "HgN/A
11:30 PM
Jan 25
30 °FPassing clouds.3 mph93%30.27 "HgN/A
11:00 PM30 °FPassing clouds.3 mph93%30.27 "HgN/A
10:30 PM30 °FPassing clouds.6 mph93%30.27 "HgN/A
10:00 PM32 °FPassing clouds.6 mph87%30.27 "HgN/A
9:30 PM32 °FPassing clouds.3 mph87%30.27 "HgN/A
9:00 PM32 °FPassing clouds.6 mph87%30.27 "HgN/A
8:30 PM32 °FPassing clouds.6 mph80%30.27 "HgN/A
8:00 PM32 °FPassing clouds.6 mph80%30.27 "HgN/A
7:30 PM32 °FPassing clouds.6 mph87%30.27 "HgN/A
7:00 PM34 °FPassing clouds.6 mph81%30.24 "HgN/A
6:30 PM34 °FPassing clouds.8 mph87%30.24 "HgN/A
6:00 PM32 °FPassing clouds.6 mph93%30.24 "HgN/A
5:30 PM34 °FScattered showers. Partly cloudy.7 mph87%30.24 "HgN/A
5:00 PM34 °FSnow flurries. Partly cloudy.8 mph87%30.24 "Hg5 mi
4:30 PM34 °FScattered showers. Broken clouds.9 mph81%30.24 "HgN/A
4:00 PM36 °FScattered showers. Partly sunny.12 mph75%30.21 "HgN/A
3:30 PM36 °FBroken clouds.12 mph75%30.21 "HgN/A
3:00 PM36 °FScattered showers. Partly sunny.10 mph75%30.21 "HgN/A
2:30 PM36 °FScattered showers. Broken clouds.14 mph81%30.21 "HgN/A
2:00 PM36 °FSnow flurries. Partly sunny.12 mph75%30.21 "HgN/A
1:30 PM36 °FBroken clouds.9 mph81%30.21 "HgN/A
1:00 PM37 °FPartly sunny.13 mph75%30.21 "HgN/A
12:30 PM36 °FBroken clouds.12 mph75%30.21 "HgN/A
12:00 PM36 °FBroken clouds.12 mph81%30.21 "HgN/A
11:30 AM34 °FPartly sunny.10 mph81%30.21 "HgN/A
11:00 AM34 °FPartly sunny.8 mph81%30.24 "HgN/A
10:30 AM34 °FPartly sunny.8 mph87%30.21 "HgN/A
10:00 AM32 °FLight snow. Partly sunny.7 mph93%30.21 "HgN/A
9:30 AM32 °FLight snow. Partly sunny.9 mph87%30.21 "HgN/A
9:00 AM32 °FPartly sunny.13 mph87%30.21 "HgN/A
8:30 AM32 °FPartly sunny.13 mph87%30.18 "HgN/A
8:00 AM32 °FPartly sunny.13 mph93%30.18 "HgN/A
7:30 AM32 °FMostly cloudy.12 mph93%30.15 "HgN/A
7:00 AM32 °FPassing clouds.10 mph93%30.15 "HgN/A
6:30 AM32 °FLight snow. Mostly cloudy.10 mph87%30.12 "HgN/A
6:00 AM32 °FMostly cloudy.9 mph87%30.12 "HgN/A
5:30 AM32 °FLight snow. Mostly cloudy.9 mph87%30.12 "HgN/A
5:00 AM30 °FPassing clouds.8 mph93%30.09 "HgN/A
4:30 AM30 °FMostly cloudy.7 mph93%30.09 "HgN/A
4:00 AM30 °FMostly cloudy.7 mph86%30.09 "HgN/A
Weather by CustomWeather, © 2014

See weather overviewHow to use our weather pages